,,Stat6,,Stat2,,Stat8,,Stat9,,Stat10,,Wind1,,Wind1,
time,status,PA1M_AVG,status,PR1M_SUM,status,RH1M_AVG,status,SR1M_AVG,status,TA1M_AVG,status,W1dAve1m,status,W1sAve1m,
2005-02-14, 00:00:00,VALID,919.686,VALID,0,VALID,96.3965,VALID,-0.118866,VALID,20.6574,VALID,271,VALID,0.279474,
2005-02-14, 00:01:00,VALID,919.68,VALID,0,VALID,96.5339,VALID,-0.118866,VALID,20.645,VALID,271,VALID,0.144077,
2005-02-14, 00:02:00,VALID,919.684,VALID,0,VALID,96.661,VALID,-0.101885,VALID,20.6323,VALID,315,VALID,0.401155,
2005-02-14, 00:03:00,VALID,919.677,VALID,0,VALID,96.7348,VALID,-0.101885,VALID,20.6256,VALID,4,VALID,0.506641,
2005-02-14, 00:04:00,VALID,919.675,VALID,0,VALID,96.7246,VALID,-0.101885,VALID,20.6256,VALID,3,VALID,0.45332,
2005-02-14, 00:05:00,VALID,919.64,VALID,0,VALID,96.6763,VALID,-0.0849042,VALID,20.599,VALID,2,VALID,0.544965,
2005-02-14, 00:06:00,VALID,919.654,VALID,0,VALID,96.7526,VALID,-0.0679233,VALID,20.6184,VALID,2,VALID,0.423147,
2005-02-14, 00:07:00,VALID,919.656,VALID,0,VALID,96.7106,VALID,0,VALID,20.6114,VALID,2,VALID,0.424479,
2005-02-14, 00:08:00,VALID,919.644,VALID,0,VALID,96.6572,VALID,0,VALID,20.6179,VALID,2,VALID,0.439499,
2005-02-14, 00:09:00,VALID,919.636,VALID,0,VALID,96.6928,VALID,0.0169808,VALID,20.598,VALID,2,VALID,0.404948,
2005-02-14, 00:10:00,VALID,919.641,VALID,0,VALID,96.5555,VALID,0,VALID,20.595,VALID,2,VALID,0.46224,
2005-02-14, 00:11:00,VALID,919.636,VALID,0,VALID,96.4538,VALID,0,VALID,20.5719,VALID,3,VALID,0.587843,
2005-02-14, 00:12:00,VALID,919.618,VALID,0,VALID,96.4207,VALID,0.0169808,VALID,20.5657,VALID,21,VALID,0.748285,
2005-02-14, 00:13:00,VALID,919.605,VALID,0,VALID,96.3787,VALID,0.0339617,VALID,20.5786,VALID,28,VALID,0.604102,
2005-02-14, 00:14:00,VALID,919.604,VALID,0,VALID,96.3469,VALID,0.0339617,VALID,20.5856,VALID,28,VALID,0.435937,
2005-02-14, 00:15:00,VALID,919.594,VALID,0,VALID,96.3151,VALID,0.0169808,VALID,20.5654,VALID,63,VALID,0.588356,
2005-02-14, 00:16:00,VALID,919.59,VALID,0,VALID,96.3139,VALID,0,VALID,20.5627,VALID,86,VALID,0.599927,
2005-02-14, 00:17:00,VALID,919.584,VALID,0,VALID,96.3482,VALID,0.0169808,VALID,20.5657,VALID,86,VALID,0.30907,
2005-02-14, 00:18:00,VALID,919.586,VALID,0,VALID,96.4067,VALID,-0.0169808,VALID,20.5358,VALID,88,VALID,0.681286,
2005-02-14, 00:19:00,VALID,919.571,VALID,0,VALID,96.5707,VALID,0.0169808,VALID,20.5207,VALID,92,VALID,0.737464,
2005-02-14, 00:20:00,VALID,919.555,VALID,0,VALID,96.7246,VALID,0.0339617,VALID,20.5011,VALID,94,VALID,0.694602,
2005-02-14, 00:21:00,VALID,919.544,VALID,0,VALID,96.8772,VALID,0.0169808,VALID,20.479,VALID,92,VALID,0.726004,
2005-02-14, 00:22:00,VALID,919.548,VALID,0,VALID,96.9586,VALID,-0.0169808,VALID,20.4653,VALID,71,VALID,0.736607,
2005-02-14, 00:23:00,VALID,919.53,VALID,0,VALID,96.97,VALID,-0.0169808,VALID,20.4822,VALID,70,VALID,0.688802,
2005-02-14, 00:24:00,VALID,919.512,VALID,0,VALID,96.937,VALID,0,VALID,20.4747,VALID,70,VALID,0.608984,
2005-02-14, 00:25:00,VALID,919.502,VALID,0,VALID,96.937,VALID,0,VALID,20.479,VALID,70,VALID,0.521439,
2005-02-14, 00:26:00,VALID,919.483,VALID,0,VALID,96.9344,VALID,0,VALID,20.4596,VALID,70,VALID,0.462798,
2005-02-14, 00:27:00,VALID,919.477,VALID,0,VALID,97.0196,VALID,0,VALID,20.4497,VALID,70,VALID,0.446456,
2005-02-14, 00:28:00,VALID,919.457,VALID,0,VALID,97.1391,VALID,-0.0339617,VALID,20.4333,VALID,70,VALID,0.388849,
2005-02-14, 00:29:00,VALID,919.446,VALID,0,VALID,97.2409,VALID,-0.0169808,VALID,20.4268,VALID,70,VALID,0.309775,
2005-02-14, 00:30:00,VALID,919.44,VALID,0,VALID,97.2612,VALID,0,VALID,20.4206,VALID,70,VALID,0.151456,
2005-02-14, 00:31:00,VALID,919.425,VALID,0,VALID,97.3108,VALID,0,VALID,20.4203,VALID,70,VALID,0,
2005-02-14, 00:32:00,VALID,919.407,VALID,0,VALID,97.4087,VALID,0.0169808,VALID,20.4104,VALID,70,VALID,0,
2005-02-14, 00:33:00,VALID,919.405,VALID,0,VALID,97.466,VALID,0,VALID,20.4174,VALID,70,VALID,0,
2005-02-14, 00:34:00,VALID,919.398,VALID,0,VALID,97.4748,VALID,0,VALID,20.4171,VALID,70,VALID,0.0114329,
2005-02-14, 00:35:00,VALID,919.385,VALID,0,VALID,97.4761,VALID,0.0169808,VALID,20.4241,VALID,70,VALID,0,
2005-02-14, 00:36:00,VALID,919.366,VALID,0,VALID,97.5346,VALID,0,VALID,20.4203,VALID,70,VALID,0,
2005-02-14, 00:37:00,VALID,919.361,VALID,0,VALID,97.6033,VALID,0.0169808,VALID,20.4402,VALID,64,VALID,0.106399,
2005-02-14, 00:38:00,VALID,919.332,VALID,0,VALID,97.5817,VALID,0,VALID,20.4559,VALID,49,VALID,0.33194,
2005-02-14, 00:39:00,VALID,919.328,VALID,0,VALID,97.4825,VALID,-0.0169808,VALID,20.475,VALID,22,VALID,0.521205,
2005-02-14, 00:40:00,VALID,919.314,VALID,0,VALID,97.3935,VALID,0,VALID,20.4849,VALID,14,VALID,0.590909,
2005-02-14, 00:41:00,VALID,919.308,VALID,0,VALID,97.3629,VALID,0,VALID,20.4882,VALID,12,VALID,0.472739,
2005-02-14, 00:42:00,VALID,919.309,VALID,0,VALID,97.4036,VALID,-0.0169808,VALID,20.5046,VALID,11,VALID,0.278088,
2005-02-14, 00:43:00,VALID,919.305,VALID,0,VALID,97.3439,VALID,0,VALID,20.5177,VALID,332,VALID,0.529978,
2005-02-14, 00:44:00,VALID,919.306,VALID,0,VALID,97.2523,VALID,0,VALID,20.5172,VALID,305,VALID,0.40263,
2005-02-14, 00:45:00,VALID,919.313,VALID,0,VALID,97.2765,VALID,-0.0169808,VALID,20.55,VALID,305,VALID,0.277435,
2005-02-14, 00:46:00,VALID,919.298,VALID,0,VALID,97.1951,VALID,0,VALID,20.5401,VALID,305,VALID,0.335175,
2005-02-14, 00:47:00,VALID,919.271,VALID,0,VALID,97.1277,VALID,0.0339617,VALID,20.5239,VALID,305,VALID,0.378646,
2005-02-14, 00:48:00,VALID,919.266,VALID,0,VALID,97.1074,VALID,0,VALID,20.5075,VALID,305,VALID,0.356445,
2005-02-14, 00:49:00,VALID,919.262,VALID,0,VALID,97.0768,VALID,-0.0169808,VALID,20.5046,VALID,305,VALID,0.374023,
2005-02-14, 00:50:00,VALID,919.228,VALID,0,VALID,97.0832,VALID,0.0169808,VALID,20.4946,VALID,302,VALID,0.349132,
2005-02-14, 00:51:00,VALID,919.221,VALID,0,VALID,97.0857,VALID,0,VALID,20.5046,VALID,298,VALID,0.328869,
2005-02-14, 00:52:00,VALID,919.208,VALID,0,VALID,97.0005,VALID,0,VALID,20.5115,VALID,213,VALID,0.463281,
2005-02-14, 00:53:00,VALID,919.177,VALID,0,VALID,96.9382,VALID,0.0169808,VALID,20.5145,VALID,187,VALID,0.618389,
2005-02-14, 00:54:00,VALID,919.149,VALID,0,VALID,96.8861,VALID,0,VALID,20.5016,VALID,182,VALID,0.610863,
2005-02-14, 00:55:00,VALID,919.155,VALID,0,VALID,96.8263,VALID,-0.0169808,VALID,20.5115,VALID,177,VALID,0.53941,
2005-02-14, 00:56:00,VALID,919.121,VALID,0,VALID,96.7538,VALID,0,VALID,20.514,VALID,177,VALID,0.335938,
2005-02-14, 00:57:00,VALID,919.114,VALID,0,VALID,96.7055,VALID,0,VALID,20.514,VALID,177,VALID,0.298018,
2005-02-14, 00:58:00,VALID,919.101,VALID,0,VALID,96.6674,VALID,0.0169808,VALID,20.5242,VALID,177,VALID,0.351215,
2005-02-14, 00:59:00,VALID,919.107,VALID,0,VALID,96.6191,VALID,-0.0169808,VALID,20.5272,VALID,184,VALID,0.464236,
2005-02-14, 01:00:00,VALID,919.099,VALID,0,VALID,96.6776,VALID,0,VALID,20.5202,VALID,204,VALID,0.961509,
2005-02-14, 01:01:00,VALID,919.105,VALID,0,VALID,96.8314,VALID,0,VALID,20.5339,VALID,220,VALID,0.65816,
2005-02-14, 01:02:00,VALID,919.101,VALID,0,VALID,96.9192,VALID,0,VALID,20.5272,VALID,232,VALID,0.429497,
2005-02-14, 01:03:00,VALID,919.114,VALID,0,VALID,96.9916,VALID,-0.0169808,VALID,20.5177,VALID,222,VALID,0.460379,
2005-02-14, 01:04:00,VALID,919.113,VALID,0,VALID,96.9929,VALID,0,VALID,20.5245,VALID,250,VALID,0.589749,
2005-02-14, 01:05:00,VALID,919.104,VALID,0,VALID,96.9077,VALID,0.0169808,VALID,20.5272,VALID,226,VALID,0.650856,
2005-02-14, 01:06:00,VALID,919.1,VALID,0,VALID,96.9408,VALID,0.0169808,VALID,20.5304,VALID,239,VALID,0.344494,
2005-02-14, 01:07:00,VALID,919.086,VALID,0,VALID,96.9344,VALID,0.0169808,VALID,20.5436,VALID,216,VALID,0.268787,
2005-02-14, 01:08:00,VALID,919.07,VALID,0,VALID,96.9255,VALID,0.0169808,VALID,20.5371,VALID,202,VALID,0.276456,
2005-02-14, 01:09:00,VALID,919.048,VALID,0,VALID,97.0031,VALID,0,VALID,20.5239,VALID,199,VALID,0.219131,
2005-02-14, 01:10:00,VALID,919.033,VALID,0,VALID,97.1099,VALID,-0.0169808,VALID,20.5272,VALID,199,VALID,0.182422,
2005-02-14, 01:11:00,VALID,919,VALID,0,VALID,97.1875,VALID,-0.0169808,VALID,20.5339,VALID,198,VALID,0.0727896,
2005-02-14, 01:12:00,VALID,918.984,VALID,0,VALID,97.2943,VALID,0.0169808,VALID,20.5277,VALID,198,VALID,0,
2005-02-14, 01:13:00,VALID,918.953,VALID,0,VALID,97.3947,VALID,0,VALID,20.5242,VALID,198,VALID,0.020419,
2005-02-14, 01:14:00,VALID,918.927,VALID,0,VALID,97.5028,VALID,0,VALID,20.5048,VALID,186,VALID,0.367001,
2005-02-14, 01:15:00,VALID,918.906,VALID,0,VALID,97.5575,VALID,-0.0169808,VALID,20.4787,VALID,85,VALID,0.434338,
2005-02-14, 01:16:00,VALID,918.869,VALID,0,VALID,97.5613,VALID,0,VALID,20.4696,VALID,79,VALID,0.405248,
2005-02-14, 01:17:00,VALID,918.855,VALID,0,VALID,97.4672,VALID,0.0169808,VALID,20.4303,VALID,79,VALID,0.37779,
2005-02-14, 01:18:00,VALID,918.824,VALID,0,VALID,97.5918,VALID,0,VALID,20.4082,VALID,79,VALID,0.255327,
2005-02-14, 01:19:00,VALID,918.823,VALID,0,VALID,97.7737,VALID,0,VALID,20.3727,VALID,79,VALID,0.0509588,
2005-02-14, 01:20:00,VALID,918.826,VALID,0,VALID,97.9504,VALID,0,VALID,20.3466,VALID,79,VALID,0,
2005-02-14, 01:21:00,VALID,918.812,VALID,0,VALID,98.0661,VALID,-0.0169808,VALID,20.3503,VALID,79,VALID,0,
2005-02-14, 01:22:00,VALID,918.835,VALID,0,VALID,98.131,VALID,0,VALID,20.3406,VALID,79,VALID,0,
2005-02-14, 01:23:00,VALID,918.829,VALID,0,VALID,98.2009,VALID,-0.0169808,VALID,20.3406,VALID,79,VALID,0,
2005-02-14, 01:24:01,VALID,918.83,VALID,0,VALID,98.3205,VALID,0,VALID,20.324,VALID,79,VALID,0,
2005-02-14, 01:25:00,VALID,918.817,VALID,0,VALID,98.515,VALID,0,VALID,20.3406,VALID,79,VALID,0.000710227,
2005-02-14, 01:26:00,VALID,918.817,VALID,0,VALID,98.6765,VALID,0,VALID,20.3269,VALID,79,VALID,0,
2005-02-14, 01:27:00,VALID,918.794,VALID,0,VALID,98.7287,VALID,0.0169808,VALID,20.3337,VALID,79,VALID,0.0550595,
2005-02-14, 01:28:01,VALID,918.784,VALID,0,VALID,98.7655,VALID,0.0169808,VALID,20.3264,VALID,79,VALID,0.0512355,
2005-02-14, 01:29:00,VALID,918.782,VALID,0,VALID,98.7299,VALID,0,VALID,20.3272,VALID,79,VALID,0.00106534,
2005-02-14, 01:30:00,VALID,918.766,VALID,0,VALID,98.6956,VALID,0,VALID,20.321,VALID,79,VALID,0.0396076,
2005-02-14, 01:31:01,VALID,918.741,VALID,0,VALID,98.5633,VALID,0,VALID,20.2986,VALID,79,VALID,0.310865,
2005-02-14, 01:32:00,VALID,918.724,VALID,0,VALID,98.5939,VALID,-0.0509425,VALID,20.2892,VALID,79,VALID,0.384527,
2005-02-14, 01:33:00,VALID,918.717,VALID,0,VALID,98.6142,VALID,0,VALID,20.2596,VALID,79,VALID,0.472747,
2005-02-14, 01:34:00,VALID,918.714,VALID,0,VALID,98.6333,VALID,0,VALID,20.2472,VALID,79,VALID,0.513393,
2005-02-14, 01:35:01,VALID,918.696,VALID,0,VALID,98.6511,VALID,0,VALID,20.2241,VALID,79,VALID,0.465892,
2005-02-14, 01:36:00,VALID,918.678,VALID,0,VALID,98.5659,VALID,-0.0849042,VALID,20.206,VALID,74,VALID,0.633358,
2005-02-14, 01:37:01,VALID,918.669,VALID,0,VALID,98.5023,VALID,-0.101885,VALID,20.1839,VALID,70,VALID,0.564931,
2005-02-14, 01:38:00,VALID,918.654,VALID,0,VALID,98.5735,VALID,-0.101885,VALID,20.1578,VALID,70,VALID,0.507635,
2005-02-14, 01:39:01,VALID,918.635,VALID,0,VALID,98.7643,VALID,-0.101885,VALID,20.1414,VALID,70,VALID,0.410065,
2005-02-14, 01:40:01,VALID,918.625,VALID,0,VALID,98.9143,VALID,-0.118866,VALID,20.1516,VALID,70,VALID,0.242006,
2005-02-14, 01:41:00,VALID,918.612,VALID,0,VALID,99.0224,VALID,-0.118866,VALID,20.1511,VALID,70,VALID,0,
2005-02-14, 01:42:01,VALID,918.603,VALID,0,VALID,99.072,VALID,-0.101885,VALID,20.1511,VALID,70,VALID,0,
2005-02-14, 01:43:00,VALID,918.589,VALID,0,VALID,99.0822,VALID,-0.0679233,VALID,20.1382,VALID,23,VALID,0.250617,
2005-02-14, 01:44:00,VALID,918.573,VALID,0,VALID,99.2322,VALID,-0.0849042,VALID,20.1414,VALID,296,VALID,0.61875,
2005-02-14, 01:45:00,VALID,918.566,VALID,0,VALID,99.3784,VALID,-0.101885,VALID,20.1484,VALID,283,VALID,0.31936,
2005-02-14, 01:46:00,VALID,918.559,VALID,0,VALID,99.4636,VALID,-0.0849042,VALID,20.1707,VALID,282,VALID,0.299826,
2005-02-14, 01:47:00,VALID,918.554,VALID,0,VALID,99.4916,VALID,-0.101885,VALID,20.1971,VALID,282,VALID,0.191667,
2005-02-14, 01:48:00,VALID,918.552,VALID,0,VALID,99.4992,VALID,-0.101885,VALID,20.2065,VALID,282,VALID,0.321766,
2005-02-14, 01:49:01,VALID,918.552,VALID,0,VALID,99.531,VALID,-0.0849042,VALID,20.2165,VALID,272,VALID,0.421289,
2005-02-14, 01:50:00,VALID,918.538,VALID,0,VALID,99.5933,VALID,-0.0849042,VALID,20.2219,VALID,265,VALID,0.12609,
2005-02-14, 01:51:00,VALID,918.532,VALID,0,VALID,99.6391,VALID,-0.0339617,VALID,20.237,VALID,265,VALID,0.362092,
2005-02-14, 01:52:00,VALID,918.515,VALID,0,VALID,99.5933,VALID,0,VALID,20.2306,VALID,251,VALID,0.393169,
2005-02-14, 01:53:00,VALID,918.502,VALID,0,VALID,99.5005,VALID,0,VALID,20.2177,VALID,247,VALID,0.15263,
2005-02-14, 01:54:00,VALID,918.487,VALID,0,VALID,99.4713,VALID,0,VALID,20.2013,VALID,247,VALID,0.0404514,
2005-02-14, 01:55:00,VALID,918.473,VALID,0,VALID,99.5094,VALID,-0.0339617,VALID,20.2082,VALID,246,VALID,0.170703,
2005-02-14, 01:56:01,VALID,918.441,VALID,0,VALID,99.5425,VALID,0,VALID,20.2276,VALID,240,VALID,0.123471,
2005-02-14, 01:57:00,VALID,918.439,VALID,0,VALID,99.5043,VALID,-0.0169808,VALID,20.2338,VALID,238,VALID,0.160792,
2005-02-14, 01:58:00,VALID,918.422,VALID,0,VALID,99.4496,VALID,-0.0339617,VALID,20.2301,VALID,237,VALID,0.0701389,
2005-02-14, 01:59:01,VALID,918.406,VALID,0,VALID,99.4395,VALID,-0.0169808,VALID,20.237,VALID,237,VALID,0.0539253,
2005-02-14, 02:00:00,VALID,918.4,VALID,0,VALID,99.4725,VALID,0,VALID,20.2499,VALID,237,VALID,0.0206597,
2005-02-14, 02:01:01,VALID,918.381,VALID,0,VALID,99.4814,VALID,0,VALID,20.2626,VALID,237,VALID,0.0548828,
2005-02-14, 02:02:00,VALID,918.359,VALID,0,VALID,99.5183,VALID,0,VALID,20.2822,VALID,237,VALID,0.0734012,
2005-02-14, 02:03:00,VALID,918.331,VALID,0,VALID,99.5081,VALID,0,VALID,20.2917,VALID,237,VALID,0.03125,
2005-02-14, 02:04:00,VALID,918.311,VALID,0,VALID,99.484,VALID,0.0169808,VALID,20.2981,VALID,237,VALID,0.0102896,
2005-02-14, 02:05:00,VALID,918.295,VALID,0,VALID,99.4725,VALID,0,VALID,20.3019,VALID,237,VALID,0,
2005-02-14, 02:06:00,VALID,918.269,VALID,0,VALID,99.4369,VALID,-0.0509425,VALID,20.3156,VALID,237,VALID,0,
2005-02-14, 02:07:00,VALID,918.255,VALID,0,VALID,99.4064,VALID,-0.0509425,VALID,20.3225,VALID,237,VALID,0,
2005-02-14, 02:08:00,VALID,918.244,VALID,0,VALID,99.3899,VALID,-0.0339617,VALID,20.3225,VALID,237,VALID,0,
2005-02-14, 02:09:01,VALID,918.233,VALID,0,VALID,99.3327,VALID,-0.101885,VALID,20.3096,VALID,237,VALID,0,
2005-02-14, 02:10:00,VALID,918.226,VALID,0,VALID,99.2767,VALID,-0.0169808,VALID,20.3029,VALID,237,VALID,0,
2005-02-14, 02:11:00,VALID,918.208,VALID,0,VALID,99.2131,VALID,-0.0679233,VALID,20.293,VALID,237,VALID,0,
2005-02-14, 02:12:01,VALID,918.208,VALID,0,VALID,99.1521,VALID,-0.0679233,VALID,20.2838,VALID,237,VALID,0,
2005-02-14, 02:13:01,VALID,918.176,VALID,0,VALID,99.1228,VALID,-0.0849042,VALID,20.2609,VALID,237,VALID,0,
2005-02-14, 02:14:00,VALID,918.173,VALID,0,VALID,99.0644,VALID,-0.0509425,VALID,20.2512,VALID,237,VALID,0,
2005-02-14, 02:15:00,VALID,918.156,VALID,0,VALID,99.0529,VALID,-0.101885,VALID,20.2378,VALID,237,VALID,0,
2005-02-14, 02:16:00,VALID,918.137,VALID,0,VALID,99.0135,VALID,-0.0679233,VALID,20.2187,VALID,237,VALID,0,
2005-02-14, 02:17:00,VALID,918.12,VALID,0,VALID,98.9639,VALID,-0.0169808,VALID,20.2087,VALID,237,VALID,0,
2005-02-14, 02:18:00,VALID,918.108,VALID,0,VALID,99.0109,VALID,-0.0339617,VALID,20.1861,VALID,237,VALID,0.154615,
2005-02-14, 02:19:00,VALID,918.1,VALID,0,VALID,99.1318,VALID,-0.0679233,VALID,20.167,VALID,237,VALID,0.189174,
2005-02-14, 02:20:00,VALID,918.088,VALID,0,VALID,99.3136,VALID,-0.0509425,VALID,20.174,VALID,237,VALID,0.362749,
2005-02-14, 02:21:00,VALID,918.084,VALID,0,VALID,99.4585,VALID,-0.0509425,VALID,20.1605,VALID,237,VALID,0.412538,
2005-02-14, 02:22:00,VALID,918.08,VALID,0,VALID,99.4992,VALID,-0.0339617,VALID,20.1571,VALID,237,VALID,0.484722,
2005-02-14, 02:23:01,VALID,918.078,VALID,0,VALID,99.4331,VALID,-0.0509425,VALID,20.1541,VALID,237,VALID,0.523611,
2005-02-14, 02:24:01,VALID,918.073,VALID,0,VALID,99.4077,VALID,-0.0849042,VALID,20.1277,VALID,237,VALID,0.550327,
2005-02-14, 02:25:01,VALID,918.048,VALID,0,VALID,99.3708,VALID,-0.0849042,VALID,20.132,VALID,237,VALID,0.577567,
2005-02-14, 02:26:00,VALID,918.033,VALID,0,VALID,99.3466,VALID,-0.0679233,VALID,20.1253,VALID,237,VALID,0.494284,
2005-02-14, 02:27:00,VALID,918.03,VALID,0,VALID,99.456,VALID,-0.0849042,VALID,20.1059,VALID,237,VALID,0.489462,
2005-02-14, 02:28:00,VALID,918.016,VALID,0,VALID,99.6277,VALID,-0.0339617,VALID,20.1186,VALID,237,VALID,0.457775,
2005-02-14, 02:29:01,VALID,917.986,VALID,0,VALID,99.7218,VALID,0,VALID,20.1285,VALID,237,VALID,0.319754,
2005-02-14, 02:30:00,VALID,917.981,VALID,0,VALID,99.7955,VALID,-0.0339617,VALID,20.1317,VALID,151,VALID,0.375694,
2005-02-14, 02:31:00,VALID,917.96,VALID,0,VALID,99.8197,VALID,-0.0679233,VALID,20.1253,VALID,132,VALID,0.317406,
2005-02-14, 02:32:01,VALID,917.947,VALID,0,VALID,99.8451,VALID,-0.0679233,VALID,20.1019,VALID,132,VALID,0.341332,
2005-02-14, 02:33:01,VALID,917.926,VALID,0,VALID,99.896,VALID,-0.0679233,VALID,20.093,VALID,132,VALID,0.334985,
2005-02-14, 02:34:00,VALID,917.909,VALID,0,VALID,99.9507,VALID,-0.101885,VALID,20.0965,VALID,132,VALID,0.301711,
2005-02-14, 02:35:00,VALID,917.9,VALID,0,VALID,99.9672,VALID,-0.101885,VALID,20.0766,VALID,132,VALID,0.345796,
2005-02-14, 02:36:00,VALID,917.874,VALID,0,VALID,99.9977,VALID,-0.0849042,VALID,20.0803,VALID,132,VALID,0.203835,
2005-02-14, 02:37:01,VALID,917.852,VALID,0,VALID,99.9784,VALID,-0.0679233,VALID,20.0771,VALID,99,VALID,0.43471,
2005-02-14, 02:38:01,VALID,917.839,VALID,0,VALID,99.8884,VALID,-0.0849042,VALID,20.0416,VALID,54,VALID,0.764291,
2005-02-14, 02:39:00,VALID,917.818,VALID,0,VALID,99.8349,VALID,-0.0679233,VALID,20.0281,VALID,49,VALID,0.943979,
2005-02-14, 02:40:00,VALID,917.803,VALID,0,VALID,99.8311,VALID,-0.0849042,VALID,20.0254,VALID,51,VALID,0.787348,
2005-02-14, 02:41:00,VALID,917.788,VALID,0,VALID,99.8146,VALID,-0.0849042,VALID,19.9993,VALID,53,VALID,0.683866,
2005-02-14, 02:42:00,VALID,917.768,VALID,0,VALID,99.751,VALID,-0.0849042,VALID,19.9934,VALID,57,VALID,0.452195,
2005-02-14, 02:43:01,VALID,917.748,VALID,0,VALID,99.6874,VALID,-0.0849042,VALID,19.9737,VALID,66,VALID,0.289789,
2005-02-14, 02:44:00,VALID,917.73,VALID,0,VALID,99.6798,VALID,-0.0509425,VALID,19.9476,VALID,101,VALID,0.498512,
2005-02-14, 02:45:00,VALID,917.72,VALID,0,VALID,99.7548,VALID,-0.0849042,VALID,19.9417,VALID,142,VALID,0.927269,
2005-02-14, 02:46:00,VALID,917.707,VALID,0,VALID,99.8909,VALID,-0.0509425,VALID,19.9382,VALID,130,VALID,0.893342,
2005-02-14, 02:47:00,VALID,917.681,VALID,0,VALID,99.9669,VALID,-0.0679233,VALID,19.9452,VALID,116,VALID,0.647321,
2005-02-14, 02:48:00,VALID,917.657,VALID,0,VALID,99.9931,VALID,-0.101885,VALID,19.9151,VALID,105,VALID,0.689757,
2005-02-14, 02:49:00,VALID,917.643,VALID,0,VALID,100,VALID,-0.0169808,VALID,19.8992,VALID,111,VALID,0.743096,
2005-02-14, 02:50:01,VALID,917.629,VALID,0,VALID,100,VALID,-0.0679233,VALID,19.8997,VALID,87,VALID,0.70827,
2005-02-14, 02:51:00,VALID,917.629,VALID,0,VALID,100,VALID,-0.0509425,VALID,19.8927,VALID,100,VALID,0.743862,
2005-02-14, 02:52:00,VALID,917.615,VALID,0,VALID,100,VALID,-0.0339617,VALID,19.8831,VALID,108,VALID,0.2234,
2005-02-14, 02:53:00,VALID,917.603,VALID,0,VALID,100,VALID,-0.0679233,VALID,19.8898,VALID,123,VALID,0.37686,
2005-02-14, 02:54:01,VALID,917.614,VALID,0,VALID,100,VALID,-0.0509425,VALID,19.8831,VALID,136,VALID,0.516927,
2005-02-14, 02:55:00,VALID,917.608,VALID,0,VALID,100,VALID,-0.101885,VALID,19.89,VALID,136,VALID,0.254906,
2005-02-14, 02:56:00,VALID,917.615,VALID,0,VALID,100,VALID,-0.0849042,VALID,19.8734,VALID,137,VALID,0.207465,
2005-02-14, 02:57:00,VALID,917.608,VALID,0,VALID,100,VALID,-0.0849042,VALID,19.8736,VALID,137,VALID,0.281072,
2005-02-14, 02:58:01,VALID,917.605,VALID,0,VALID,100,VALID,-0.0849042,VALID,19.8836,VALID,137,VALID,0.0213914,
2005-02-14, 02:59:00,VALID,917.587,VALID,0,VALID,100,VALID,-0.0849042,VALID,19.8836,VALID,137,VALID,0,
2005-02-14, 03:00:00,VALID,917.577,VALID,0,VALID,100,VALID,-0.0849042,VALID,19.8634,VALID,137,VALID,0,
2005-02-14, 03:01:01,VALID,917.58,VALID,0,VALID,100,VALID,-0.0679233,VALID,19.8769,VALID,140,VALID,0.23165,
2005-02-14, 03:02:01,VALID,917.58,VALID,0,VALID,100,VALID,-0.0679233,VALID,19.9029,VALID,149,VALID,0.539253,
2005-02-14, 03:03:00,VALID,917.587,VALID,0,VALID,100,VALID,-0.0339617,VALID,19.8992,VALID,151,VALID,0.483994,
2005-02-14, 03:04:01,VALID,917.596,VALID,0,VALID,100,VALID,-0.101885,VALID,19.9094,VALID,151,VALID,0.358665,
2005-02-14, 03:05:00,VALID,917.62,VALID,0,VALID,100,VALID,-0.0509425,VALID,19.9188,VALID,161,VALID,0.494368,
2005-02-14, 03:06:00,VALID,917.62,VALID,0,VALID,100,VALID,-0.0169808,VALID,19.9342,VALID,161,VALID,0.381324,
2005-02-14, 03:07:01,VALID,917.623,VALID,0,VALID,100,VALID,0.0169808,VALID,19.9469,VALID,151,VALID,0.651786,
2005-02-14, 03:08:01,VALID,917.618,VALID,0,VALID,100,VALID,0,VALID,19.9464,VALID,144,VALID,0.594494,
2005-02-14, 03:09:01,VALID,917.615,VALID,0,VALID,100,VALID,0,VALID,19.9531,VALID,147,VALID,0.393576,
2005-02-14, 03:10:01,VALID,917.606,VALID,0,VALID,99.9481,VALID,0,VALID,19.9469,VALID,146,VALID,0.624238,
2005-02-14, 03:11:01,VALID,917.593,VALID,0,VALID,99.8744,VALID,0.0169808,VALID,19.9466,VALID,146,VALID,0.521439,
2005-02-14, 03:12:01,VALID,917.575,VALID,0,VALID,99.8032,VALID,-0.0169808,VALID,19.9464,VALID,146,VALID,0.49891,
2005-02-14, 03:13:01,VALID,917.56,VALID,0,VALID,99.704,VALID,0,VALID,19.9566,VALID,146,VALID,0.540234,
2005-02-14, 03:14:01,VALID,917.562,VALID,0,VALID,99.5857,VALID,0,VALID,19.9692,VALID,146,VALID,0.705543,
2005-02-14, 03:15:00,VALID,917.54,VALID,0,VALID,99.4687,VALID,-0.0169808,VALID,19.9929,VALID,146,VALID,0.526563,
2005-02-14, 03:16:00,VALID,917.542,VALID,0,VALID,99.3441,VALID,0,VALID,19.9986,VALID,148,VALID,0.35032,
2005-02-14, 03:17:01,VALID,917.529,VALID,0,VALID,99.2258,VALID,0,VALID,20.008,VALID,172,VALID,0.810082,
2005-02-14, 03:18:01,VALID,917.533,VALID,0,VALID,99.1572,VALID,0,VALID,20.0214,VALID,176,VALID,0.711825,
2005-02-14, 03:19:01,VALID,917.535,VALID,0,VALID,99.133,VALID,0,VALID,19.9951,VALID,166,VALID,0.940044,
2005-02-14, 03:20:00,VALID,917.544,VALID,0,VALID,99.1661,VALID,-0.0169808,VALID,19.9924,VALID,173,VALID,0.595526,
2005-02-14, 03:21:01,VALID,917.526,VALID,0,VALID,99.2042,VALID,0.0169808,VALID,19.9692,VALID,172,VALID,0.572917,
2005-02-14, 03:22:01,VALID,917.511,VALID,0,VALID,99.325,VALID,0,VALID,19.9566,VALID,161,VALID,0.740189,
2005-02-14, 03:23:01,VALID,917.512,VALID,0,VALID,99.4713,VALID,0,VALID,19.9469,VALID,163,VALID,0.771205,
2005-02-14, 03:24:01,VALID,917.498,VALID,0,VALID,99.5425,VALID,0.0509425,VALID,19.9469,VALID,167,VALID,0.751402,
2005-02-14, 03:25:01,VALID,917.47,VALID,0,VALID,99.6061,VALID,0,VALID,19.9539,VALID,167,VALID,0.699886,
2005-02-14, 03:26:01,VALID,917.458,VALID,0,VALID,99.6264,VALID,0,VALID,19.9402,VALID,166,VALID,0.637277,
2005-02-14, 03:27:01,VALID,917.445,VALID,0,VALID,99.6073,VALID,-0.0169808,VALID,19.9536,VALID,163,VALID,0.653963,
2005-02-14, 03:28:01,VALID,917.419,VALID,0,VALID,99.5933,VALID,0,VALID,19.9506,VALID,146,VALID,0.87157,
2005-02-14, 03:29:01,VALID,917.39,VALID,0,VALID,99.5196,VALID,0,VALID,19.9635,VALID,148,VALID,0.792361,
2005-02-14, 03:30:01,VALID,917.371,VALID,0,VALID,99.3835,VALID,0.0169808,VALID,19.967,VALID,141,VALID,0.686523,
2005-02-14, 03:31:01,VALID,917.365,VALID,0,VALID,99.2182,VALID,0,VALID,19.9765,VALID,131,VALID,0.693444,
2005-02-14, 03:32:01,VALID,917.359,VALID,0,VALID,99.0923,VALID,0,VALID,19.9929,VALID,149,VALID,0.673473,
2005-02-14, 03:33:01,VALID,917.368,VALID,0,VALID,98.9588,VALID,0,VALID,19.9856,VALID,143,VALID,0.818555,
2005-02-14, 03:34:01,VALID,917.388,VALID,0,VALID,98.8584,VALID,0,VALID,19.9926,VALID,145,VALID,0.885099,
2005-02-14, 03:35:01,VALID,917.396,VALID,0,VALID,98.7325,VALID,0,VALID,20.0018,VALID,148,VALID,0.689098,
2005-02-14, 03:36:01,VALID,917.402,VALID,0,VALID,98.6778,VALID,0.0169808,VALID,20.0082,VALID,153,VALID,0.869673,